RYR29DU LEVC-EICK

Flight info

Callsign RYR29DU
Flight time N/A
Altitude 38000
Route CENTA N733 CJN/N0442F340 L150 RBO N867 GASMO/N0447F360 N867 BLV N75 DELOG DCT TURDO DCT TULTA/M077F360 DCT MAPAG DCT SOVIX SOVIX1G
Aircraft B738/M-SDE2E3FGHIRWXY/LB1

Departure

Time N/A
Airport Valencia Airport (LEVC)

Arrival

Time 2026-05-05 12:15
Airport Cork International Airport (EICK)
Time Latitude Longitude Altitude Speed Heading
2026-05-05 12:12 51.74877 -8.43624 2301 ft 175 kts 341°
2026-05-05 12:12 51.76018 -8.44299 2052 ft 174 kts 341°
2026-05-05 12:13 51.77141 -8.44968 1844 ft 170 kts 341°
2026-05-05 12:13 51.78235 -8.45617 1581 ft 163 kts 341°
2026-05-05 12:13 51.79235 -8.46210 1442 ft 141 kts 340°
2026-05-05 12:13 51.80136 -8.46758 1230 ft 141 kts 340°
2026-05-05 12:14 51.81037 -8.47282 971 ft 134 kts 340°
2026-05-05 12:14 51.81904 -8.47794 795 ft 135 kts 338°
2026-05-05 12:14 51.82798 -8.48321 618 ft 134 kts 338°
2026-05-05 12:14 51.83636 -8.48821 466 ft 119 kts 341°
2026-05-05 12:15 51.84217 -8.49161 477 ft 57 kts 340°
2026-05-05 12:15 51.84474 -8.49311 481 ft 34 kts 340°
2026-05-05 12:15 51.84679 -8.49434 490 ft 26 kts 339°
2026-05-05 12:15 51.84768 -8.49435 490 ft 11 kts 48°
2026-05-05 12:16 51.84799 -8.49322 489 ft 11 kts 69°
2026-05-05 12:16 51.84832 -8.49233 501 ft 5 kts 29°
2026-05-05 12:16 51.84867 -8.49237 502 ft 6 kts 345°
2026-05-05 12:16 51.84916 -8.49262 502 ft 10 kts 346°
2026-05-05 12:17 51.84961 -8.49216 502 ft 8 kts 67°
2026-05-05 12:17 51.84977 -8.49142 502 ft 6 kts 70°
2026-05-05 12:17 51.84981 -8.49129 502 ft 0 kts 70°